This demonstration page uses our WeatherBlox Daily Observations layout. Learn more.

Left ArrowRight Arrow

34.74481, -87.66753

Hourly Observations for August 1, 2016

Temp ( °F °C ) Dew Point ( °F °C ) Humidity (%) Winds ( mph kmh ) Pressure ( in mb ) Visibility ( mi km ) Precip ( " mm )
12:53 am 00:53 Clear 73 22.8 70 21.1 90 90 Calm 30.04 1017 9 14 0.00 0.00
1:53 am 01:53 Clear 73 22.8 70 21.1 90 90 Calm 30.04 1017 9 14 0.00 0.00
2:53 am 02:53 Clear 72 22.2 70 21.1 94 94 Calm 30.04 1017 10 16 0.00 0.00
3:53 am 03:53 Clear 72 22.2 69 20.6 91 91 Calm 30.04 1017 7 11 0.00 0.00
4:53 am 04:53 Clear with Mist and Fog 71 21.7 69 20.6 94 94 Calm 30.06 1018 5 8 0.00 0.00
5:53 am 05:53 Clear with Mist and Fog 71 21.7 69 20.6 94 94 Calm 30.07 1018 4 6 0.00 0.00
6:53 am 06:53 Mostly Sunny 73 22.8 70 21.1 90 90 Calm 30.08 1019 8 13 0.00 0.00
7:53 am 07:53 Mostly Cloudy 76 24.4 72 22.2 88 88 Calm 30.10 1019 9 14 0.00 0.00
8:53 am 08:53 Sunny 81 27.2 73 22.8 77 77 SSW 5 7 30.10 1019 10 16 0.00 0.00
9:53 am 09:53 Sunny 86 30 75 23.9 70 70 Calm 30.10 1019 10 16 0.00 0.00
10:53 am 10:53 Sunny 88 31.1 74 23.3 63 63 WNW 8 13 30.10 1019 10 16 0.00 0.00
11:53 am 11:53 Partly Cloudy 87 30.6 74 23.3 65 65 NW 6 9 30.09 1019 10 16 0.00 0.00
12:53 pm 12:53 Partly Cloudy 90 32.2 73 22.8 58 58 WNW 5 7 30.08 1019 10 16 0.00 0.00
1:53 pm 13:53 Partly Cloudy 91 32.8 73 22.8 56 56 N 6 9 30.06 1018 10 16 0.00 0.00
2:53 pm 14:53 Mostly Sunny 90 32.2 72 22.2 56 56 N 3 6 30.04 1017 10 16 0.00 0.00
3:53 pm 15:53 Mostly Cloudy 91 32.8 72 22.2 54 54 Calm 30.01 1016 10 16 0.00 0.00
4:53 pm 16:53 Partly Cloudy 92 33.3 71 21.7 51 51 WSW 3 6 30.01 1016 10 16 0.00 0.00
5:53 pm 17:53 Sunny 90 32.2 73 22.8 58 58 WNW 8 13 30.02 1017 10 16 0.00 0.00
6:53 pm 18:53 Sunny 88 31.1 74 23.3 63 63 WNW 6 9 30.04 1017 10 16 0.00 0.00
7:53 pm 19:53 Clear 83 28.3 75 23.9 77 77 Calm 30.04 1017 10 16 0.00 0.00
8:53 pm 20:53 Clear 81 27.2 74 23.3 79 79 Calm 30.03 1017 10 16 0.00 0.00
9:53 pm 21:53 Clear 81 27.2 74 23.3 79 79 Calm 30.04 1017 10 16 0.00 0.00
10:53 pm 22:53 Clear 80 26.7 73 22.8 79 79 ENE 3 6 30.06 1018 10 16 0.00 0.00
11:53 pm 23:53 Clear 77 25 73 22.8 88 88 Calm 30.06 1018 10 16 0.00 0.00

Powered by AerisWeather